{"data":{"norad_id":64618,"epoch":"2026-05-24T20:04:27.679872Z","epoch_age_seconds":79235,"freshness":"FRESH","line1":"1 64618U 25137AA  26144.83643148  .00018119  00000+0  62240-3 0  9993","line2":"2 64618  53.1595 341.5110 0000751  84.8754 275.2333 15.30199218 52392","mean_motion":15.30199218,"eccentricity":7.51e-5,"inclination_deg":53.1595,"raan_deg":341.511,"arg_perigee_deg":84.8754,"mean_anomaly_deg":275.2333,"bstar":0.0006224,"rev_number":5239,"period_min":94.105393798469,"perigee_km":474.7027174156,"apogee_km":475.73209124713,"semimajor_km":6853.3544043314,"source":"CELESTRAK","updated_at":"2026-05-25T13:38:20.499498Z"}}